Volver al catálogo

ONEWEB-0506

ActivoComunicacionesPO
NORAD 54124·PAYLOAD·🇬🇧 United Kingdom

Lanzado Oct 22, 2022 desde Satish Dhawan Space Centre

Loading…

Próximos Pases (próximas 24 horas)

TLE

ActualizadoSource: CelesTrak SupGP

Época: Sep 15, 2026, 00:34 UTC

1 54124C 22138M   26258.02411296  .00002179  00000+0  54488-2 0  2587
2 54124  87.9107 287.0726 0002091  85.6357 300.8491 13.19722382    12

Sigue ONEWEB-0506 en tiempo real con AllMySat

Download on the App Store